Regional Weather Roundup
Issued by NWS

Home | Current Version | Previous Version | Graphics & Text | Print | Product List | Glossary On
Versions: 1 2 3 4 5 6 7 8 9 10 11 12 13 14 15 16 17 18 19 20 21 22 23 24 25 26 27 28 29 30 31 32 33 34 35 36 37 38 39 40 41 42 43 44 45 46 47 48 49 50
248
ASUS45 KCYS 050810
RWRWY

WYOMING REGIONAL WEATHER ROUNDUP
NATIONAL WEATHER SERVICE CHEYENNE WY
100 AM MST MON DEC 05 2016

NOTE:  "FAIR" INDICATES FEW OR NO CLOUDS BELOW 12,000 FEET
WITH NO SIGNIFICANT WEATHER AND/OR OBSTRUCTIONS TO VISIBILITY.

WYZ001-050900-
YELLOWSTONE NATIONAL PARK

CITY           SKY/WX    TMP DP  RH WIND       PRES   REMARKS
LK YELLOWSTONE   N/A     21  16  81 W8G17     29.53F WCI  11
W YELLOWSTONE  NOT AVBL

$$
WYZ002>013-054>058-071-098>099-050900-
NORTHERN WYOMING

CITY           SKY/WX    TMP DP  RH WIND       PRES   REMARKS
JACKSON        CLOUDY    30  25  80 W23G32    29.57S WCI  17
CODY           FLURRIES  25  22  88 N16G25    29.57S WCI  12
GREYBULL       CLOUDY    33  23  66 NW20      29.52S WCI  21
WORLAND        FAIR      25  22  88 SW3       29.53R
SHERIDAN       FLURRIES  31  26  82 NW20G25   29.60S WCI  19
BUFFALO        LGT SNOW  30  25  81 NW21G30   29.56R VSB 3/4 WCI  17
GILLETTE       LGT SNOW  30  29  96 NW21      29.54R VSB 1   WCI  17
HULETT         CLOUDY    37  27  65 W7        29.51R WCI  32
NEWCASTLE      FAIR      36  23  60 E8        29.54F WCI  29

$$
WYZ014>020-022>026-101>103-050900-
CENTRAL WYOMING

CITY           SKY/WX    TMP DP  RH WIND       PRES   REMARKS
BIG PINEY      LGT SNOW  27  26  96 W10       29.66F FOG     WCI  17
PINEDALE       CLOUDY    28  27  93 MISG      29.64F
DUBOIS         LGT SNOW  27  25  93 NW10      29.51S WCI  17
LANDER         MOCLDY    36  26  67 SW20G28   29.54S WCI  25
RIVERTON       FAIR      32  25  75 SW14      29.54F WCI  22
CASPER         LGT RAIN  39  24  55 SW36G44   29.54F WCI  26
DOUGLAS        FAIR      43  23  45 W25G37    29.55F

$$
WYZ021-027>030-104>119-050900-
SOUTHERN WYOMING

CITY           SKY/WX    TMP DP  RH WIND       PRES   REMARKS
EVANSTON       FLURRIES  30  27  88 W16       29.74  WCI  19
KEMMERER       LGT SNOW  30  28  93 SW24G33   29.70F WCI  16
FORT BRIDGER   HVY SNOW  32  32 100 W15G23    29.75F VSB<1/4 WCI  22
ROCK SPRINGS   CLOUDY    32  25  75 W26G33    29.70F WCI  18
DIXON          PTSUNNY   34  15  46 SW20G29   29.75F WCI  23
RAWLINS        CLOUDY    33  16  49 SW28G40   29.68F WCI  20
SARATOGA       CLOUDY    32  19  59 SW10G17   29.71S WCI  24
LARAMIE        CLOUDY    29  16  58 S10       29.66F WCI  20
CHEYENNE       FAIR      40  18  41 W17G25    29.64F WCI  31
TORRINGTON     FAIR      48  19  31 W12G24    29.58F
PINE BLUFFS    FAIR      30  16  55 S7        29.67F WCI  23

$$




USA.gov is the U.S. government's official web portal to all federal, state and local government web resources and services.